Theta_e
325 326 327 327 327 325 326 326 325 326 326 326 323 320 323 325 324 323 324 325 325 323 324 326 328 326 328 327 328 329 328 328 327 327 327 327 328 326 326 328 327 327 327
324 325 327 327 327 326 326 326 325 326 326 326 324 323 322 323 324 325 325 325 324 323 323 326 328 328 328 327 328 328 328 327 328 327 327 328 327 327 326 327 326 327 328
322 323 325 325 327 326 326 326 325 326 325 326 326 325 325 325 325 324 323 323 324 327 328 328 329 328 328 328 329 328 328 328 327 327 327 328 327 327 325 325 326 327 323
321 323 324 324 325 326 326 327 326 327 325 325 326 325 325 325 325 325 326 326 326 326 327 329 328 328 328 329 327 328 328 327 327 328 327 328 327 327 326 326 326 326 313
321 322 322 324 327 327 326 328 328 328 326 325 325 325 325 326 325 326 326 324 325 326 328 328 328 328 329 328 327 326 326 327 328 327 326 326 327 326 326 326 325 313 313
321 321 321 324 327 327 323 327 328 328 328 328 326 324 325 325 326 327 326 324 325 327 328 328 328 328 328 327 326 325 326 326 326 326 327 328 328 326 317 316 311 311 316
321 320 318 324 323 325 323 325 326 328 328 328 328 328 328 328 326 326 327 326 326 327 327 327 325 328 327 325 324 325 325 325 326 323 324 325 318 313 314 314 315 319 321
321 320 318 325 324 321 322 323 322 321 328 329 328 327 327 328 328 328 328 326 325 327 327 327 325 326 326 325 326 326 324 322 321 319 318 319 318 319 320 321 321 321 322
321 319 318 321 325 322 321 322 321 321 328 328 328 327 327 327 328 328 327 327 326 326 327 326 325 325 325 325 325 323 321 321 322 321 321 321 323 322 322 323 323 323 322
321 319 318 318 325 325 322 321 320 321 328 328 329 328 328 328 329 328 328 328 328 327 326 326 325 325 325 323 322 321 321 322 324 323 322 322 323 318 313 312 312 313 314
323 320 319 317 319 324 324 322 321 318 322 322 323 322 321 321 321 327 328 328 328 327 326 326 326 327 327 322 320 322 321 323 322 321 320 319 314 313 314 317 318 318 317
323 320 319 318 316 322 324 323 322 319 318 318 319 319 319 317 316 317 317 317 323 327 327 327 326 324 320 318 319 321 321 320 320 317 314 313 314 316 318 319 319 317 317
323 320 320 319 316 317 320 321 321 320 317 318 318 320 321 322 320 319 318 319 318 316 320 322 317 316 317 316 316 317 317 316 314 313 314 313 314 317 320 319 318 318 315
323 321 320 320 318 318 319 319 320 318 317 318 316 318 321 322 322 321 320 320 318 318 317 316 316 316 316 316 316 315 315 315 315 315 313 311 317 320 319 319 318 315 310
322 322 319 321 320 319 318 317 318 317 312 314 318 318 316 316 316 317 317 318 317 314 313 315 314 314 313 315 316 315 315 315 314 312 311 313 319 319 319 318 313 310 307
322 323 320 320 321 319 319 319 318 317 317 315 314 317 320 318 316 313 313 315 316 312 311 309 311 311 312 314 315 315 314 312 311 310 311 314 319 320 318 312 309 306 300
321 321 321 320 320 321 319 319 318 318 319 318 317 317 318 317 318 317 311 311 312 314 311 310 310 312 312 313 314 313 312 311 310 312 313 318 320 319 315 311 307 298 296
322 320 320 319 320 321 321 320 319 319 316 316 317 317 317 318 318 317 314 311 310 311 312 313 312 313 312 312 313 312 311 310 311 315 318 320 320 319 315 311 300 297 296
323 322 321 321 320 321 321 321 320 319 319 316 315 314 313 313 316 315 317 316 308 308 311 312 314 314 314 313 313 312 311 312 316 318 319 320 319 316 313 302 297 296 296
324 323 322 322 322 322 322 322 321 320 320 319 317 313 311 310 313 313 315 317 316 311 307 310 312 315 316 316 316 314 313 317 320 320 320 320 318 314 306 298 296 296 295
326 325 324 323 323 323 322 322 322 321 320 320 320 318 313 312 310 312 314 316 317 316 314 307 307 312 314 316 317 314 312 318 321 320 319 318 316 312 300 297 297 296 296
328 328 327 326 324 324 324 323 324 323 322 321 321 321 319 315 314 312 314 315 317 317 318 317 314 310 309 313 314 316 314 313 317 320 318 316 312 306 298 297 300 296 295
330 330 329 328 328 327 325 324 324 324 324 323 323 323 322 321 318 315 314 313 315 316 317 318 319 318 317 315 311 312 313 313 317 318 317 312 308 300 297 305 298 296 295
331 331 331 331 331 330 329 327 326 326 325 325 325 324 324 323 323 321 320 319 318 317 316 316 317 317 318 318 318 315 313 314 318 318 317 310 303 298 305 300 296 295 294
332 332 332 332 331 331 331 330 329 328 328 327 327 326 325 325 324 324 324 323 322 320 320 320 319 318 317 317 317 316 314 315 318 319 314 306 299 303 301 296 296 295 294
332 332 332 332 331 332 331 331 330 330 330 330 330 329 328 326 326 325 324 324 324 323 323 322 320 319 318 317 316 315 315 315 318 317 308 301 301 302 297 296 296 295 293
Wind_Speed
2 2 0 3 5 7 9 4 3 5 5 8 13 15 13 12 12 11 10 12 11 12 13 13 16 18 19 16 14 17 16 20 25 27 20 29 31 30 26 20 15 10 7
2 3 2 2 4 5 9 4 6 6 8 9 11 12 13 11 11 10 11 11 12 12 14 15 16 18 19 13 15 17 14 22 21 26 20 28 31 26 23 16 10 4 1
3 2 3 2 3 5 8 9 9 8 10 10 9 11 12 11 10 10 10 11 10 10 11 14 16 18 18 14 16 18 17 18 18 23 23 26 25 22 24 15 10 7 5
4 3 3 1 5 6 10 9 10 9 10 11 11 11 11 10 11 10 12 13 10 10 10 13 17 17 18 21 20 18 17 21 19 21 22 24 22 20 20 14 12 7 5
7 5 5 7 9 9 8 10 11 9 10 12 11 11 11 11 11 9 10 6 6 9 14 14 17 17 23 21 20 23 29 22 19 21 23 22 21 20 18 13 10 6 5
10 7 8 9 10 9 8 9 9 9 10 9 8 9 11 12 9 12 10 6 7 9 15 15 19 24 22 18 24 23 23 21 18 16 17 19 18 15 11 11 10 8 3
14 10 8 12 10 9 9 11 11 9 8 9 9 7 5 10 19 15 13 14 9 11 16 16 21 24 24 25 25 20 16 13 9 9 15 16 15 14 13 11 8 5 4
17 13 9 15 13 11 10 9 9 8 9 11 14 13 14 17 14 13 11 16 15 22 24 24 27 26 27 22 17 12 14 16 16 17 17 17 14 13 10 8 6 6 6
21 17 12 16 16 12 11 10 8 10 12 13 13 12 12 15 16 15 17 18 20 22 24 25 27 26 20 15 13 16 17 17 14 12 13 11 10 9 7 6 5 5 5
24 18 14 16 17 14 11 11 9 11 14 13 14 13 12 13 14 16 16 17 21 22 24 25 22 18 14 14 15 16 16 14 12 13 13 10 6 4 2 1 4 4 4
23 19 16 16 19 17 16 12 11 13 15 15 15 15 14 14 15 16 16 15 20 25 27 25 17 12 13 13 13 11 10 11 9 8 7 6 5 3 2 4 5 7 7
25 21 19 16 21 20 19 16 13 13 16 16 15 15 15 15 15 15 13 12 15 19 22 20 16 15 14 14 15 13 11 10 8 8 8 7 6 7 8 9 8 7 5
27 23 22 20 19 20 21 20 17 16 17 19 18 17 16 15 14 13 13 12 12 14 16 17 17 16 16 15 14 13 13 13 12 10 10 10 10 11 10 9 7 6 4
28 24 25 25 22 21 21 21 21 20 21 20 21 21 19 18 17 15 14 14 14 15 16 18 17 17 17 16 17 17 15 13 12 12 12 11 12 12 10 8 8 6 5
29 26 26 28 26 23 21 20 21 20 20 23 22 20 21 22 21 18 16 15 15 17 18 20 21 22 23 22 21 19 18 18 17 16 15 13 13 12 10 10 9 8 7
33 31 28 29 30 28 25 24 22 18 18 18 19 19 19 16 15 18 20 19 17 18 20 22 24 24 25 25 23 22 21 20 18 18 16 16 15 13 14 14 12 9 10
34 33 31 30 31 32 30 27 25 22 21 19 20 22 21 18 18 17 20 23 23 22 25 24 25 26 26 26 25 24 23 21 20 21 19 18 19 16 15 15 14 14 14
37 32 32 32 31 32 32 29 26 23 24 25 25 25 25 22 21 19 20 24 30 32 30 29 30 30 29 29 28 27 25 24 24 24 22 22 22 19 19 18 18 17 14
40 37 34 32 31 31 32 33 30 27 25 25 24 27 28 28 25 26 26 28 30 34 34 33 32 32 32 31 30 29 28 27 27 27 25 26 25 22 21 21 21 19 16
39 38 37 36 35 33 32 34 34 32 28 26 25 25 28 31 33 34 34 33 33 33 35 36 35 35 34 32 30 30 30 30 31 30 30 30 28 25 21 23 21 17 13
38 38 38 38 38 37 35 34 34 34 32 29 25 24 26 31 35 37 37 37 37 36 35 37 38 37 37 36 35 35 34 32 34 36 36 35 33 28 25 24 19 19 15
37 36 36 36 38 39 39 36 35 34 34 32 28 25 25 30 33 36 38 38 38 36 35 35 35 37 39 40 42 41 38 33 31 37 41 39 36 30 31 26 19 18 15
36 35 34 35 35 35 38 37 36 35 34 33 32 29 28 29 32 35 36 38 39 38 37 37 38 37 36 37 41 44 41 32 25 33 44 42 37 33 29 20 23 22 14
33 34 34 33 32 32 33 35 34 34 34 33 33 32 30 30 30 31 31 33 34 36 39 41 41 40 41 40 46 42 38 40 29 33 46 47 33 31 19 21 25 19 14
30 34 36 35 34 33 32 32 32 33 35 35 35 35 35 32 32 32 29 33 34 36 38 39 40 42 43 46 45 45 45 45 35 35 43 37 37 28 27 24 23 17 13
24 26 29 30 32 33 34 34 31 29 31 30 30 31 33 32 32 31 32 33 34 35 34 37 38 38 41 44 44 42 43 44 34 34 40 41 36 33 28 24 24 17 13
Wind_Direction
204 213 228 19 20 33 27 48 57 82 123 165 175 176 181 183 188 188 193 187 187 188 187 195 197 191 188 190 193 185 177 180 166 171 171 166 169 161 159 159 155 170 177
213 212 192 34 38 38 27 90 80 86 118 144 155 172 185 180 178 185 183 185 182 177 188 197 203 202 193 194 185 189 175 191 176 163 163 167 177 172 167 171 176 196 213
175 161 182 67 70 56 42 113 104 98 111 123 127 144 157 159 162 169 172 173 179 183 189 186 185 174 181 185 179 174 180 157 166 160 164 159 163 176 180 194 203 220 210
168 161 172 130 120 90 74 117 121 111 112 115 126 135 148 156 155 147 141 129 137 166 166 173 173 171 177 164 149 153 162 157 150 165 167 171 171 173 181 200 215 211 197
186 167 157 136 127 108 91 94 123 110 126 119 127 138 140 147 161 159 162 148 142 159 159 162 166 172 169 166 159 142 141 139 136 137 148 159 167 180 194 203 188 180 187
194 169 161 151 135 122 105 102 97 119 121 135 154 154 168 168 174 198 189 189 154 161 164 161 166 169 153 148 144 146 141 138 135 146 158 163 163 170 171 167 176 189 176
194 179 165 167 151 142 126 109 106 104 123 133 136 143 165 202 192 201 199 197 174 164 165 171 172 161 153 150 140 144 142 145 151 143 151 160 156 154 154 156 151 153 202
195 188 175 174 168 155 147 129 112 104 120 124 133 120 105 103 101 124 139 149 152 143 139 140 144 141 142 147 154 152 152 136 124 117 117 116 127 133 134 140 160 214 261
196 192 183 181 176 171 162 145 125 121 127 130 136 137 129 113 109 113 133 133 141 144 146 150 148 142 146 145 139 138 145 134 130 139 142 143 146 159 166 187 210 244 262
199 193 184 185 184 184 182 159 135 136 134 133 135 139 135 128 122 122 130 141 153 154 159 153 153 150 150 146 142 150 148 137 129 144 155 151 152 159 158 276 279 283 273
199 192 184 187 187 189 186 176 159 152 149 143 142 139 136 132 129 130 140 137 147 153 162 161 164 171 168 162 156 146 150 149 159 154 156 177 189 184 222 247 266 274 272
198 193 188 185 187 189 189 185 183 173 169 164 161 154 149 144 141 138 136 143 154 163 169 175 175 171 171 176 175 175 186 198 202 210 197 193 202 226 249 262 259 253 253
198 195 191 191 186 189 193 191 191 190 183 180 180 178 170 165 163 163 163 158 156 163 170 177 182 183 181 180 183 193 205 208 208 205 210 219 226 236 237 235 243 260 262
197 197 193 200 193 191 194 201 200 197 195 191 189 192 190 188 185 184 183 182 178 178 181 187 190 191 191 193 195 195 197 203 214 224 233 227 220 219 225 242 255 240 235
198 198 197 204 204 200 201 203 210 216 211 202 201 197 199 203 205 205 202 197 197 195 196 196 197 196 196 193 194 196 203 212 223 232 233 227 219 220 228 241 232 230 238
200 202 202 206 210 211 211 211 214 217 220 224 224 216 211 216 215 216 213 209 211 209 207 207 203 201 200 199 202 207 215 224 234 238 235 230 223 222 226 217 222 225 201
205 203 204 208 215 216 217 218 217 215 217 219 221 225 225 220 215 218 216 214 214 216 217 219 213 209 208 211 215 222 230 235 241 239 231 224 216 220 222 217 214 197 197
212 211 207 207 212 219 222 222 222 219 216 217 216 219 223 224 223 223 217 217 217 216 217 218 217 217 217 219 222 226 232 238 243 233 226 222 223 227 223 222 204 200 197
215 214 213 215 216 219 225 227 227 226 226 229 226 224 220 218 219 213 215 225 224 222 220 221 222 223 225 226 230 233 238 244 243 233 227 228 227 227 227 212 199 195 196
220 221 220 219 220 222 226 229 231 231 231 235 233 232 226 218 214 213 216 221 227 230 230 228 227 227 229 231 234 237 243 246 241 235 232 231 226 224 219 201 197 197 199
221 224 226 228 227 227 229 231 233 234 235 237 240 240 235 230 224 220 222 225 229 232 234 236 236 235 235 235 237 238 239 242 245 243 239 231 223 218 203 198 192 196 205
223 225 226 230 233 232 234 236 238 239 240 242 244 242 239 236 237 235 233 232 234 240 244 243 243 242 243 241 242 243 245 248 250 251 239 228 218 208 195 184 205 209 205
225 227 229 232 236 239 239 239 240 241 243 245 246 245 243 240 239 240 240 242 243 244 246 248 249 247 247 251 251 250 250 242 251 276 235 219 209 194 187 194 210 208 202
227 229 231 232 235 240 242 241 242 244 247 249 250 251 250 249 249 251 251 250 249 249 249 250 252 253 252 248 252 250 247 238 247 268 231 214 193 186 191 199 208 201 200
235 237 238 237 236 237 241 245 246 249 250 252 255 256 258 257 254 255 258 261 261 260 258 256 257 257 255 253 251 246 241 234 240 261 220 200 186 194 182 196 214 211 207
228 241 247 245 241 240 243 245 248 254 256 257 259 260 261 264 264 261 257 257 262 264 267 270 266 262 258 254 248 242 243 237 248 241 205 186 185 174 183 202 215 213 209